| time (UTC) | temp F | wind direction | speed MPH | gust MPH | rain 1hr in | rain 24hr in | rain mn in | humidity % | barometer mb |
| 20260902204130 | 66 | 74 | 1.0 | 2.0 | 0.00 | 0.00 | 0.00 | 89 | 1024.5 |
| 20260902203029 | 67 | 78 | 1.0 | 2.0 | 0.00 | 0.00 | 0.00 | 89 | 1024.4 |
| 20260902202053 | 67 | 48 | 1.0 | 2.0 | 0.00 | 0.00 | 0.00 | 89 | 1024.3 |
| 20260902201116 | 67 | 353 | 2.0 | 3.0 | 0.00 | 0.00 | 0.00 | 89 | 1024.4 |
| 20260902200036 | 67 | 26 | 1.0 | 4.0 | 0.00 | 0.00 | 0.00 | 89 | 1024.2 |
| 20260902195101 | 67 | 2 | 2.0 | 4.0 | 0.00 | 0.00 | 0.00 | 88 | 1024.1 |
| 20260902194021 | 67 | 132 | 3.0 | 4.0 | 0.00 | 0.00 | 0.00 | 88 | 1024.0 |
| 20260902193046 | 68 | 306 | 2.0 | 4.0 | 0.00 | 0.00 | 0.00 | 87 | 1023.9 |
| 20260902192108 | 68 | 297 | 2.0 | 3.0 | 0.00 | 0.00 | 0.00 | 86 | 1023.8 |
| 20260902191051 | 68 | 285 | 3.0 | 6.0 | 0.00 | 0.00 | 0.00 | 85 | 1023.8 |
| 20260902190053 | 69 | 292 | 3.0 | 7.0 | 0.00 | 0.00 | 0.00 | 83 | 1023.9 |
| 20260902185117 | 70 | 348 | 3.0 | 6.0 | 0.00 | 0.00 | 0.00 | 83 | 1023.9 |
| 20260902184037 | 70 | 323 | 3.0 | 6.0 | 0.00 | 0.00 | 0.00 | 82 | 1023.8 |
| 20260902183100 | 71 | 309 | 4.0 | 8.0 | 0.00 | 0.00 | 0.00 | 80 | 1023.9 |
| 20260902182020 | 72 | 352 | 3.0 | 6.0 | 0.00 | 0.00 | 0.00 | 78 | 1024.0 |
| 20260902181045 | 72 | 326 | 3.0 | 6.0 | 0.00 | 0.00 | 0.00 | 79 | 1024.1 |
| 20260902180110 | 71 | 325 | 5.0 | 9.0 | 0.00 | 0.00 | 0.00 | 79 | 1024.1 |
| 20260902175029 | 72 | 305 | 5.0 | 9.0 | 0.00 | 0.00 | 0.00 | 79 | 1024.1 |
| 20260902174113 | 72 | 302 | 3.0 | 7.0 | 0.00 | 0.00 | 0.00 | 79 | 1024.2 |
| 20260902173117 | 72 | 336 | 3.0 | 7.0 | 0.00 | 0.00 | 0.00 | 79 | 1024.4 |
| 20260902172038 | 72 | 327 | 4.0 | 7.0 | 0.00 | 0.00 | 0.00 | 78 | 1024.3 |
| 20260902171101 | 73 | 346 | 3.0 | 7.0 | 0.00 | 0.00 | 0.00 | 77 | 1024.2 |
| 20260902170021 | 73 | 357 | 3.0 | 8.0 | 0.00 | 0.00 | 0.00 | 77 | 1024.2 |
| 20260902165106 | 73 | 5 | 2.0 | 9.0 | 0.00 | 0.00 | 0.00 | 77 | 1024.1 |
| 20260902164109 | 73 | 345 | 4.0 | 8.0 | 0.00 | 0.00 | 0.00 | 77 | 1024.1 |
| 20260902163049 | 73 | 321 | 4.0 | 9.0 | 0.00 | 0.00 | 0.00 | 76 | 1024.2 |
| 20260902162052 | 73 | 329 | 4.0 | 9.0 | 0.00 | 0.00 | 0.00 | 77 | 1024.0 |
| 20260902161118 | 73 | 359 | 4.0 | 10.0 | 0.00 | 0.00 | 0.00 | 77 | 1024.2 |
| 20260902160038 | 72 | 347 | 5.0 | 10.0 | 0.00 | 0.00 | 0.00 | 79 | 1024.3 |
| 20260902155102 | 73 | 347 | 4.0 | 9.0 | 0.00 | 0.00 | 0.00 | 78 | 1024.2 |
| 20260902154021 | 73 | 335 | 6.0 | 11.0 | 0.00 | 0.00 | 0.00 | 79 | 1024.4 |
| 20260902153045 | 73 | 333 | 4.0 | 13.0 | 0.00 | 0.00 | 0.00 | 78 | 1024.5 |
| 20260902152130 | 73 | 349 | 5.0 | 11.0 | 0.00 | 0.00 | 0.00 | 78 | 1024.5 |
| 20260902151039 | 73 | 6 | 6.0 | 14.0 | 0.00 | 0.00 | 0.00 | 78 | 1024.5 |
| 20260902150053 | 73 | 355 | 4.0 | 10.0 | 0.00 | 0.00 | 0.00 | 77 | 1024.5 |
| 20260902145020 | 73 | 6 | 4.0 | 9.0 | 0.00 | 0.00 | 0.00 | 77 | 1024.5 |
| 20260902144058 | 74 | 324 | 5.0 | 13.0 | 0.00 | 0.00 | 0.00 | 76 | 1024.7 |
| 20260902143102 | 75 | 337 | 4.0 | 7.0 | 0.00 | 0.00 | 0.00 | 75 | 1024.7 |
| 20260902142101 | 74 | 317 | 3.0 | 9.0 | 0.00 | 0.00 | 0.00 | 76 | 1024.9 |
| 20260902141045 | 74 | 21 | 4.0 | 9.0 | 0.00 | 0.00 | 0.00 | 75 | 1024.8 |
| 20260902140109 | 74 | 336 | 3.0 | 9.0 | 0.00 | 0.00 | 0.00 | 76 | 1024.6 |
| 20260902135110 | 74 | 346 | 4.0 | 9.0 | 0.00 | 0.00 | 0.00 | 75 | 1024.9 |
| 20260902134054 | 73 | 343 | 4.0 | 9.0 | 0.00 | 0.00 | 0.00 | 76 | 1025.0 |
| 20260902133118 | 74 | 353 | 3.0 | 8.0 | 0.00 | 0.00 | 0.00 | 76 | 1024.9 |
| 20260902132037 | 73 | 359 | 5.0 | 9.0 | 0.00 | 0.00 | 0.00 | 76 | 1024.9 |
| 20260902131101 | 73 | 358 | 3.0 | 7.0 | 0.00 | 0.00 | 0.00 | 75 | 1024.9 |
| 20260902130022 | 72 | 356 | 4.0 | 9.0 | 0.00 | 0.00 | 0.00 | 76 | 1024.7 |
| 20260902125045 | 73 | 2 | 4.0 | 9.0 | 0.00 | 0.00 | 0.00 | 75 | 1024.8 |
| 20260902124109 | 72 | 10 | 5.0 | 9.0 | 0.00 | 0.00 | 0.00 | 76 | 1024.9 |
| 20260902123029 | 71 | 4 | 5.0 | 10.0 | 0.00 | 0.00 | 0.00 | 77 | 1025.0 |
| 20260902122053 | 71 | 356 | 4.0 | 11.0 | 0.00 | 0.00 | 0.00 | 77 | 1025.0 |
| 20260902121117 | 72 | 349 | 4.0 | 7.0 | 0.00 | 0.00 | 0.00 | 72 | 1024.9 |
| 20260902120037 | 73 | 26 | 3.0 | 7.0 | 0.00 | 0.00 | 0.00 | 70 | 1025.0 |
| 20260902115101 | 73 | 19 | 2.0 | 4.0 | 0.00 | 0.00 | 0.00 | 68 | 1025.0 |
| 20260902114021 | 71 | 12 | 3.0 | 4.0 | 0.00 | 0.00 | 0.00 | 68 | 1025.1 |
| 20260902113046 | 71 | 344 | 4.0 | 6.0 | 0.00 | 0.00 | 0.00 | 69 | 1025.1 |
| 20260902112109 | 71 | 33 | 2.0 | 4.0 | 0.00 | 0.00 | 0.00 | 70 | 1025.4 |
| 20260902111029 | 71 | 18 | 3.0 | 6.0 | 0.00 | 0.00 | 0.00 | 71 | 1025.4 |
| 20260902110053 | 70 | 7 | 3.0 | 7.0 | 0.00 | 0.00 | 0.00 | 70 | 1025.3 |
| 20260902105117 | 71 | 29 | 3.0 | 4.0 | 0.00 | 0.00 | 0.00 | 69 | 1025.3 |
| 20260902104057 | 71 | 348 | 3.0 | 6.0 | 0.00 | 0.00 | 0.00 | 70 | 1025.3 |
| 20260902103121 | 71 | 73 | 1.0 | 3.0 | 0.00 | 0.00 | 0.00 | 71 | 1025.2 |
| 20260902102042 | 70 | 58 | 1.0 | 2.0 | 0.00 | 0.00 | 0.00 | 71 | 1025.3 |
| 20260902101045 | 68 | 58 | 1.0 | 3.0 | 0.00 | 0.00 | 0.00 | 75 | 1025.2 |
| 20260902100109 | 67 | 106 | 2.0 | 6.0 | 0.00 | 0.00 | 0.00 | 77 | 1025.2 |
| 20260902095029 | 65 | 155 | 3.0 | 4.0 | 0.00 | 0.00 | 0.00 | 86 | 1025.2 |
| 20260902094053 | 64 | 83 | 2.0 | 3.0 | 0.00 | 0.00 | 0.00 | 92 | 1025.1 |
| 20260902093137 | 63 | 73 | 1.0 | 3.0 | 0.00 | 0.00 | 0.00 | 94 | 1025.2 |
| 20260902092037 | 62 | 85 | 1.0 | 3.0 | 0.00 | 0.00 | 0.00 | 95 | 1025.1 |
| 20260902091101 | 61 | 124 | 2.0 | 4.0 | 0.00 | 0.00 | 0.00 | 96 | 1025.1 |
| 20260902090020 | 61 | 104 | 2.0 | 4.0 | 0.00 | 0.00 | 0.00 | 96 | 1025.0 |
| 20260902085044 | 60 | 91 | 1.0 | 3.0 | 0.00 | 0.00 | 0.00 | 97 | 1025.0 |
| 20260902084109 | 59 | 109 | 2.0 | 3.0 | 0.00 | 0.00 | 0.00 | 97 | 1025.0 |
| 20260902083029 | 58 | 101 | 2.0 | 3.0 | 0.00 | 0.00 | 0.00 | 97 | 1024.8 |
| 20260902082053 | 58 | 113 | 2.0 | 3.0 | 0.00 | 0.00 | 0.00 | 97 | 1024.9 |
| 20260902081137 | 58 | 133 | 3.0 | 4.0 | 0.00 | 0.00 | 0.00 | 97 | 1024.8 |
| 20260902080037 | 57 | 126 | 3.0 | 6.0 | 0.00 | 0.00 | 0.00 | 97 | 1024.5 |
| 20260902075101 | 57 | 121 | 3.0 | 6.0 | 0.00 | 0.00 | 0.00 | 97 | 1024.5 |
| 20260902074021 | 56 | 114 | 2.0 | 6.0 | 0.00 | 0.00 | 0.00 | 97 | 1024.4 |
| 20260902073106 | 57 | 110 | 3.0 | 4.0 | 0.00 | 0.00 | 0.00 | 97 | 1024.2 |
| 20260902072129 | 56 | 114 | 3.0 | 4.0 | 0.00 | 0.00 | 0.00 | 97 | 1024.2 |
| 20260902071029 | 56 | 96 | 2.0 | 4.0 | 0.00 | 0.00 | 0.00 | 97 | 1024.2 |
| 20260902070053 | 56 | 79 | 1.0 | 2.0 | 0.00 | 0.00 | 0.00 | 97 | 1024.1 |
| 20260902065117 | 56 | 100 | 2.0 | 3.0 | 0.00 | 0.00 | 0.00 | 97 | 1023.9 |
| 20260902064037 | 55 | 88 | 2.0 | 3.0 | 0.00 | 0.00 | 0.00 | 97 | 1023.8 |
| 20260902063101 | 56 | 83 | 2.0 | 3.0 | 0.00 | 0.00 | 0.00 | 96 | 1023.8 |
| 20260902062021 | 56 | 99 | 2.0 | 3.0 | 0.00 | 0.00 | 0.00 | 96 | 1023.8 |
| 20260902061106 | 56 | 115 | 3.0 | 3.0 | 0.00 | 0.00 | 0.00 | 96 | 1023.7 |
| 20260902060109 | 56 | 75 | 1.0 | 3.0 | 0.00 | 0.00 | 0.00 | 96 | 1023.6 |
| 20260902055030 | 56 | 111 | 2.0 | 4.0 | 0.00 | 0.00 | 0.00 | 96 | 1023.5 |
| 20260902054054 | 56 | 92 | 2.0 | 3.0 | 0.00 | 0.00 | 0.00 | 96 | 1023.5 |
| 20260902053023 | 56 | 85 | 1.0 | 2.0 | 0.00 | 0.00 | 0.00 | 96 | 1023.4 |
| 20260902052038 | 56 | 112 | 3.0 | 6.0 | 0.00 | 0.00 | 0.00 | 96 | 1023.5 |
| 20260902051121 | 56 | 111 | 3.0 | 6.0 | 0.00 | 0.00 | 0.00 | 96 | 1023.4 |
| 20260902050021 | 57 | 132 | 4.0 | 6.0 | 0.00 | 0.00 | 0.00 | 96 | 1023.2 |
| 20260902045045 | 57 | 116 | 3.0 | 4.0 | 0.00 | 0.00 | 0.00 | 96 | 1023.2 |
| 20260902044129 | 57 | 136 | 3.0 | 4.0 | 0.00 | 0.00 | 0.00 | 96 | 1023.2 |
| 20260902043029 | 57 | 112 | 2.0 | 4.0 | 0.00 | 0.00 | 0.00 | 96 | 1023.1 |
| 20260902042053 | 57 | 126 | 3.0 | 6.0 | 0.00 | 0.00 | 0.00 | 96 | 1023.2 |
| 20260902041137 | 57 | 124 | 4.0 | 4.0 | 0.00 | 0.00 | 0.00 | 95 | 1023.2 |
| 20260902040057 | 57 | 108 | 3.0 | 4.0 | 0.00 | 0.00 | 0.00 | 95 | 1023.3 |
| 20260902035101 | 57 | 140 | 3.0 | 6.0 | 0.00 | 0.00 | 0.00 | 95 | 1023.3 |
| 20260902034020 | 57 | 119 | 3.0 | 4.0 | 0.00 | 0.00 | 0.00 | 95 | 1023.2 |
| 20260902033125 | 58 | 131 | 3.0 | 6.0 | 0.00 | 0.00 | 0.00 | 95 | 1023.4 |
| 20260902032109 | 59 | 103 | 2.0 | 4.0 | 0.00 | 0.00 | 0.00 | 95 | 1023.5 |
| 20260902031029 | 59 | 106 | 2.0 | 3.0 | 0.00 | 0.00 | 0.00 | 94 | 1023.4 |
| 20260902030113 | 59 | 105 | 2.0 | 3.0 | 0.00 | 0.00 | 0.00 | 94 | 1023.5 |
| 20260902025117 | 59 | 124 | 2.0 | 4.0 | 0.00 | 0.00 | 0.00 | 94 | 1023.4 |
| 20260902024037 | 59 | 100 | 2.0 | 4.0 | 0.00 | 0.00 | 0.00 | 94 | 1023.5 |
| 20260902023101 | 59 | 94 | 2.0 | 3.0 | 0.00 | 0.00 | 0.00 | 94 | 1023.5 |
| 20260902022021 | 59 | 96 | 2.0 | 2.0 | 0.00 | 0.00 | 0.00 | 94 | 1023.5 |
| 20260902021145 | 59 | 79 | 1.0 | 2.0 | 0.00 | 0.00 | 0.00 | 94 | 1023.6 |
| 20260902020108 | 59 | 92 | 2.0 | 3.0 | 0.00 | 0.00 | 0.00 | 94 | 1023.5 |
| 20260902015029 | 59 | 101 | 2.0 | 3.0 | 0.00 | 0.00 | 0.00 | 94 | 1023.3 |
| 20260902014113 | 60 | 91 | 2.0 | 2.0 | 0.00 | 0.00 | 0.00 | 94 | 1023.5 |
| 20260902013116 | 60 | 97 | 2.0 | 2.0 | 0.00 | 0.00 | 0.00 | 94 | 1023.7 |
| 20260902012037 | 60 | 89 | 2.0 | 3.0 | 0.00 | 0.00 | 0.00 | 94 | 1023.7 |
| 20260902011121 | 61 | 101 | 2.0 | 3.0 | 0.00 | 0.00 | 0.00 | 94 | 1023.6 |
| 20260902010020 | 61 | 96 | 2.0 | 3.0 | 0.00 | 0.00 | 0.00 | 94 | 1023.4 |
| 20260902005105 | 61 | 106 | 2.0 | 4.0 | 0.00 | 0.00 | 0.00 | 93 | 1023.5 |
| 20260902004108 | 61 | 101 | 2.0 | 3.0 | 0.00 | 0.00 | 0.00 | 93 | 1023.6 |
| 20260902003049 | 61 | 74 | 0.0 | 1.0 | 0.00 | 0.00 | 0.00 | 93 | 1023.5 |
| 20260902002053 | 62 | 90 | 1.0 | 2.0 | 0.00 | 0.00 | 0.00 | 93 | 1023.6 |
| 20260902001117 | 62 | 87 | 1.0 | 2.0 | 0.00 | 0.00 | 0.00 | 93 | 1023.7 |
| 20260902000037 | 62 | 84 | 0.0 | 1.0 | 0.00 | 0.00 | 0.00 | 93 | 1023.5 |
| 20260901235101 | 62 | 84 | 0.0 | 1.0 | 0.00 | 0.00 | 0.00 | 93 | 1023.6 |
| 20260901234021 | 63 | 78 | 0.0 | 2.0 | 0.00 | 0.00 | 0.00 | 93 | 1023.5 |
| 20260901233045 | 63 | 74 | 1.0 | 2.0 | 0.00 | 0.00 | 0.00 | 92 | 1023.4 |
| 20260901232110 | 63 | 84 | 1.0 | 2.0 | 0.00 | 0.00 | 0.00 | 92 | 1023.4 |
| 20260901231029 | 63 | 104 | 2.0 | 3.0 | 0.00 | 0.00 | 0.00 | 92 | 1023.3 |
| 20260901230054 | 63 | 114 | 3.0 | 4.0 | 0.00 | 0.00 | 0.00 | 92 | 1023.2 |
| 20260901225117 | 63 | 114 | 3.0 | 4.0 | 0.00 | 0.00 | 0.00 | 92 | 1023.3 |
| 20260901224037 | 63 | 115 | 2.0 | 4.0 | 0.00 | 0.00 | 0.00 | 91 | 1023.3 |
| 20260901223101 | 64 | 102 | 3.0 | 4.0 | 0.00 | 0.00 | 0.00 | 91 | 1023.4 |
| 20260901222021 | 64 | 106 | 2.0 | 3.0 | 0.00 | 0.00 | 0.00 | 90 | 1023.4 |
| 20260901221045 | 64 | 87 | 1.0 | 2.0 | 0.00 | 0.00 | 0.00 | 89 | 1023.6 |
| 20260901220129 | 65 | 75 | 1.0 | 1.0 | 0.00 | 0.00 | 0.00 | 88 | 1023.5 |
| 20260901215049 | 66 | 81 | 1.0 | 2.0 | 0.00 | 0.00 | 0.00 | 88 | 1023.5 |
| 20260901214113 | 66 | 63 | 0.0 | 1.0 | 0.00 | 0.00 | 0.00 | 87 | 1023.6 |
| 20260901213259 | 66 | 25 | 1.0 | 2.0 | 0.00 | 0.00 | 0.00 | 87 | 1023.7 |
| 20260901212037 | 66 | 35 | 1.0 | 1.0 | 0.00 | 0.00 | 0.00 | 87 | 1023.5 |
| 20260901211141 | 66 | 19 | 1.0 | 2.0 | 0.00 | 0.00 | 0.00 | 87 | 1023.5 |
| 20260901210021 | 66 | 29 | 1.0 | 2.0 | 0.00 | 0.00 | 0.00 | 86 | 1023.5 |
| 20260901205045 | 67 | 20 | 2.0 | 3.0 | 0.00 | 0.00 | 0.00 | 86 | 1023.5 |